Location: ČR
(50.0000°N, 15.0000°E)
Time: 23:22:44
(UTC+01:00)

Envisat - Pass Details

Date: 10 August 2025
Orbit: 761 x 763 km, 98.4° (Epoch: 14 March)

Event Time Altitude Azimuth Distance (km) Brightness Sun altitude
Rises 04:24:34 0° 11° (N) 3,238 7.2 -11.2°
Reaches altitude 10° 04:26:54 10° 8° (N) 2,308 6.2 -11.0°
Maximum altitude 04:31:53 58° 290° (WNW) 887 3.2 -10.4°
Enters shadow 04:36:40 11° 213° (SSW) 2,227 4.8 -9.8°
